Weather History for KBVE - December, 2012

Change the Weather History Date:

Friday, December 7, 2012

  Actual Average Record
Temperature  
Mean Temperature 66 °F -  
Max Temperature 72 °F - - ()
Min Temperature 59 °F - - ()
Growing Degree Days 16 (Base 50)    
Moisture  
Dew Point 65 °F    
Average Humidity 99    
Maximum Humidity 100    
Minimum Humidity 91    
Precipitation  
Precipitation 0.12 in - - ()
Sea Level Pressure  
Sea Level Pressure 29.94 in    
Wind  
Wind Speed 1 mph (North)    
Max Wind Speed 7 mph    
Max Gust Speed -    
Visibility 3 miles    
Events Fog , Rain    
T = Trace of Precipitation, MM = Missing Value Source: NWS Daily Summary

Daily Weather History Graph

Daily Weather History Graph

Search for Another Location

Airport or City:

Trip Planner

Search our weather history database for the weather conditions in past years. The results will help you decide how hot, cold, wet, or windy it might be!

Date:

Astronomy

Dec. 07, 2012 Rise Set
Actual Time 6:39 AM CST 4:59 PM CST
Civil Twilight 6:13 AM CST 5:25 PM CST
Nautical Twilight 5:43 AM CST 5:54 PM CST
Astronomical Twilight 5:14 AM CST 6:23 PM CST
Moon 12:23 AM CST (12/7) 12:33 PM CST (12/7)
Length of Visible Light 11h 11m
Length of Day
10h 19m
Last Quarter, 38% of the Moon is Illuminated
Dec 7
Last Quarter
Dec 13
New
Dec 19
First Quarter
Dec 28
Full
Jan 4
Last Quarter

Hourly Weather History & Observations

Time (CST) Temp. Dew Point Humidity Pressure Visibility Wind Dir Wind Speed Gust Speed Precip Events Conditions
12:38 AM 60.8 °F 60.8 °F 100% 29.95 in 1.5 mi Calm Calm - N/A   Scattered Clouds
12:47 AM 60.8 °F 60.8 °F 100% 29.94 in 0.8 mi Calm Calm - N/A   Scattered Clouds
12:51 AM 61.0 °F 61.0 °F 100% 29.94 in 0.8 mi Calm Calm - N/A   Partly Cloudy
1:14 AM 60.8 °F 60.8 °F 100% 29.94 in 0.2 mi Calm Calm - N/A Fog Fog
1:33 AM 60.8 °F 60.8 °F 100% 29.94 in 0.5 mi Calm Calm - N/A Fog Fog
1:40 AM 59.0 °F 59.0 °F 100% 29.94 in 0.2 mi Calm Calm - N/A Fog Fog
1:51 AM 60.1 °F 60.1 °F 100% 29.94 in 0.2 mi Calm Calm - N/A Fog Fog
2:16 AM 59.0 °F 59.0 °F 100% 29.94 in 0.2 mi Calm Calm - N/A Fog Fog
2:48 AM 60.8 °F 60.8 °F 100% 29.93 in 0.8 mi Calm Calm - N/A   Mist
2:51 AM 59.0 °F 59.0 °F 100% 29.93 in 1.2 mi Calm Calm - N/A   Scattered Clouds
3:04 AM 59.0 °F 59.0 °F 100% 29.93 in 0.5 mi Calm Calm - N/A Fog Fog
3:28 AM 60.8 °F 60.8 °F 100% 29.93 in 1.8 mi Calm Calm - N/A   Overcast
3:48 AM 60.8 °F 60.8 °F 100% 29.93 in 3.0 mi Calm Calm - N/A   Overcast
3:51 AM 61.0 °F 61.0 °F 100% 29.93 in 3.0 mi Calm Calm - N/A   Overcast
4:06 AM 60.8 °F 60.8 °F 100% 29.93 in 1.8 mi Calm Calm - N/A   Mostly Cloudy
4:21 AM 62.6 °F 62.6 °F 100% 29.93 in 1.5 mi Calm Calm - N/A   Mostly Cloudy
4:31 AM 62.6 °F 62.6 °F 100% 29.93 in 2.0 mi Calm Calm - N/A   Overcast
4:51 AM 62.1 °F 62.1 °F 100% 29.93 in 2.5 mi Calm Calm - N/A   Overcast
5:00 AM 62.6 °F 62.6 °F 100% 29.93 in 3.0 mi Calm Calm - N/A   Overcast
5:51 AM 63.0 °F 63.0 °F 100% 29.95 in 4.0 mi North 3.5 mph - N/A   Overcast
6:51 AM 64.0 °F 64.0 °F 100% 29.96 in 5.0 mi Calm Calm - 0.00 in   Overcast
7:51 AM 64.9 °F 64.9 °F 100% 29.96 in 6.0 mi ENE 4.6 mph - N/A   Mostly Cloudy
8:51 AM 66.9 °F 66.9 °F 100% 29.97 in 9.0 mi Calm Calm - N/A   Overcast
9:51 AM 69.1 °F 66.9 °F 93% 29.98 in 10.0 mi Calm Calm - N/A   Overcast
10:51 AM 70.0 °F 68.0 °F 93% 29.97 in 6.0 mi Calm Calm - N/A   Overcast
11:42 AM 69.8 °F 69.8 °F 100% 29.95 in 1.8 mi Calm Calm - 0.01 in Rain Rain
11:51 AM 69.1 °F 69.1 °F 100% 29.94 in 0.5 mi Variable 3.5 mph - 0.10 in Fog , Rain Heavy Rain
11:57 AM 69.8 °F 69.8 °F 100% 29.94 in 2.0 mi Variable 3.5 mph - 0.01 in Rain Light Rain
12:04 PM 71.6 °F 69.8 °F 94% 29.93 in 10.0 mi Calm Calm - 0.01 in   Overcast
12:31 PM 71.6 °F 69.8 °F 94% 29.92 in 10.0 mi Calm Calm - 0.01 in   Overcast
12:51 PM 72.0 °F 69.1 °F 91% 29.92 in 10.0 mi Calm Calm - 0.01 in   Overcast
1:51 PM 71.1 °F 70.0 °F 96% 29.91 in 9.0 mi NNW 6.9 mph - 0.00 in   Overcast
2:17 PM 71.6 °F 69.8 °F 94% 29.90 in 10.0 mi North 4.6 mph - N/A   Mostly Cloudy
2:51 PM 70.0 °F 69.1 °F 97% 29.90 in 9.0 mi NE 3.5 mph - 0.00 in Rain Light Rain
3:51 PM 70.0 °F 70.0 °F 100% 29.89 in 9.0 mi Calm Calm - 0.01 in   Scattered Clouds
4:51 PM 69.1 °F 69.1 °F 100% 29.90 in 8.0 mi Calm Calm - N/A   Scattered Clouds
5:51 PM 66.9 °F 66.9 °F 100% 29.91 in 3.0 mi Calm Calm - N/A   Scattered Clouds
6:01 PM 66.2 °F 66.2 °F 100% 29.91 in 1.8 mi Calm Calm - N/A   Scattered Clouds
6:11 PM 66.2 °F 66.2 °F 100% 29.92 in 0.5 mi Calm Calm - N/A Fog Fog
6:21 PM 66.2 °F 66.2 °F 100% 29.92 in 0.5 mi Calm Calm - N/A Fog Fog
6:29 PM 66.2 °F 66.2 °F 100% 29.92 in 0.2 mi Calm Calm - N/A Fog Fog
6:46 PM 66.2 °F 66.2 °F 100% 29.92 in 0.5 mi Calm Calm - N/A Fog Fog
6:51 PM 66.0 °F 66.0 °F 100% 29.93 in 0.5 mi Calm Calm - N/A Fog Fog
7:51 PM 66.9 °F 66.9 °F 100% 29.94 in 0.5 mi Calm Calm - N/A Fog Fog
8:00 PM 66.2 °F 66.2 °F 100% 29.93 in 1.5 mi ENE 3.5 mph - N/A   Overcast
8:14 PM 66.2 °F 66.2 °F 100% 29.94 in 0.5 mi East 3.5 mph - N/A Fog Fog
8:24 PM 66.2 °F 66.2 °F 100% 29.94 in 0.2 mi ENE 3.5 mph - N/A Fog Fog
8:51 PM 64.9 °F 64.9 °F 100% 29.94 in 0.2 mi Calm Calm - N/A Fog Fog
9:51 PM 63.0 °F 63.0 °F 100% 29.95 in 0.2 mi West 4.6 mph - N/A Fog Fog
10:02 PM 66.2 °F 66.2 °F 100% 29.95 in 1.0 mi SW 3.5 mph - N/A   Mist
10:17 PM 64.4 °F 64.4 °F 100% 29.95 in 2.0 mi Calm Calm - N/A   Overcast
10:30 PM 66.2 °F 66.2 °F 100% 29.95 in 0.8 mi Calm Calm - N/A   Overcast
10:51 PM 66.0 °F 66.0 °F 100% 29.95 in 0.2 mi Calm Calm - N/A Fog Fog
11:23 PM 64.4 °F 64.4 °F 100% 29.95 in 0.5 mi Calm Calm - N/A Fog Fog
11:35 PM 64.4 °F 64.4 °F 100% 29.94 in 1.0 mi Calm Calm - N/A   Mist
11:39 PM 64.4 °F 64.4 °F 100% 29.94 in 0.5 mi West 3.5 mph - N/A Fog Fog
11:46 PM 64.4 °F 64.4 °F 100% 29.94 in 0.2 mi West 3.5 mph - N/A Fog Fog
11:51 PM 64.0 °F 64.0 °F 100% 29.94 in 0.2 mi Calm Calm - N/A Fog Fog